Home > Weather > Phnom Penh > Past weeks

Flag for Cambodia Past Weather in Phnom Penh, Cambodia — Yesterday and Last 2 Weeks

Now
79 °F

Passing clouds.


Feels Like: 82 °F
Forecast: 77 / 86 °F
Wind: 12 mph from Southwest

Location: Phnom-Penh / Pochentong

Current Time: Jul 28, 2016 at 9:36:22 PM

Latest Report: Jul 28, 2016 at 9:00 PM


Visibility: 6 mi

Pressure: 29.77 "Hg

Humidity: 89%

Dew Point: 75 °F

Location of Phnom PenhLocation

Past Weather in Phnom Penh — Graph

°F

Phnom Penh Temperature Yesterday

Maximum temperature yesterday: 90 °F (at 12:00 PM)
Minimum temperature yesterday: 79 °F (at 12:00 AM)
Average temperature yesterday: 84 °F

High & Low Weather Summary for the Past Weeks

 TemperatureHumidityPressure
High95 °F (Jul 15, 2:00 PM)100% (Jul 14, 6:00 AM)29.89 "Hg (Jul 14, 6:00 AM)
Low73 °F (Jul 25, 12:00 AM)41% (Jul 25, 5:00 PM)29.62 "Hg (Jul 19, 4:00 PM)
Average85 °F76%29.75 "Hg
* Reported Jul 13 8:00 PM — Jul 28 8:30 PM, Phnom Penh, Weather by CustomWeather, © 2016

Note: Actual official high and low records may vary slightly from our data, if they occured in-between our weather recording intervals... More about our weather records

Advertising

Phnom Penh Weather History for the Previous 24 Hours

Scroll right to see more
 ConditionsComfort  
Time TempWeatherWind HumidityBarometerVisibility
8:30 PM
Thu, Jul 28
81 °FLight rain. Passing clouds.12 mph89%29.77 "Hg5 mi
8:00 PM81 °FLight rain. Passing clouds.3 mph94%29.74 "Hg3 mi
7:30 PM79 °FPassing clouds.5 mph94%29.74 "Hg6 mi
7:00 PM77 °FThunderstorms. Passing clouds.5 mph100%29.71 "Hg3 mi
6:30 PM77 °FThunderstorms. Passing clouds.6 mph100%29.74 "Hg2 mi
6:00 PM88 °FThunderstorms. Scattered clouds.18 mph66%29.65 "Hg3 mi
5:30 PM88 °FScattered clouds.7 mph66%29.65 "HgN/A
5:00 PM88 °FScattered clouds.10 mph66%29.65 "HgN/A
4:30 PM88 °FScattered clouds.10 mph70%29.65 "HgN/A
4:00 PM88 °FScattered clouds.13 mph66%29.65 "HgN/A
3:30 PM90 °FScattered clouds.13 mph63%29.65 "HgN/A
3:00 PM91 °FScattered clouds.12 mph63%29.65 "HgN/A
2:30 PM91 °FScattered clouds.8 mph59%29.65 "HgN/A
2:00 PM90 °FScattered clouds.13 mph67%29.65 "HgN/A
1:30 PM91 °FScattered clouds.9 mph67%29.68 "HgN/A
1:00 PM93 °FScattered clouds.10 mph53%29.68 "HgN/A
12:30 PM91 °FScattered clouds.12 mph56%29.71 "HgN/A
12:00 PM90 °FScattered clouds.9 mph63%29.71 "HgN/A
11:30 AM88 °FScattered clouds.10 mph66%29.74 "HgN/A
11:00 AM88 °FScattered clouds.10 mph62%29.74 "HgN/A
10:30 AM88 °FScattered clouds.10 mph62%29.74 "HgN/A
10:00 AM88 °FPassing clouds.9 mph66%29.74 "HgN/A
9:30 AM86 °FPassing clouds.10 mph70%29.74 "HgN/A
9:00 AM86 °FPassing clouds.12 mph70%29.74 "HgN/A
8:30 AM84 °FPassing clouds.12 mph74%29.74 "HgN/A
8:00 AM84 °FPassing clouds.8 mph74%29.74 "HgN/A
7:30 AM82 °FPassing clouds.8 mph79%29.74 "HgN/A
7:00 AM81 °FPassing clouds.6 mph84%29.71 "HgN/A
2:30 AM79 °FPassing clouds.3 mph89%29.71 "Hg6 mi
2:00 AM81 °FPassing clouds.5 mph79%29.71 "Hg6 mi
1:30 AM81 °FPassing clouds.5 mph79%29.74 "Hg6 mi
1:00 AM81 °FPassing clouds.5 mph79%29.74 "Hg6 mi
12:30 AM81 °FPassing clouds.6 mph79%29.74 "Hg6 mi
12:00 AM81 °FPassing clouds.2 mph84%29.74 "Hg6 mi
11:30 PM
Wed, Jul 27
81 °FPassing clouds.2 mph84%29.77 "Hg6 mi
11:00 PM81 °FPassing clouds.2 mph84%29.77 "Hg6 mi
10:30 PM82 °FPassing clouds.2 mph74%29.77 "Hg6 mi
10:00 PM82 °FPassing clouds.2 mph79%29.77 "Hg6 mi
9:30 PM82 °FPassing clouds.2 mph79%29.77 "Hg6 mi
9:00 PM82 °FPassing clouds.2 mph79%29.77 "Hg6 mi
Weather by CustomWeather, © 2016

See weather overviewHow to use our weather pages